User: anonymous   Login
Location: Unspecified
(0.0000°N, 0.0000°E)
Time: 10:09:16
(UTC+00:00)
Language:

STARLINK-3616 - Orbit

View from above orbital plane
View from above orbital plane
View from above satellite
View from above satellite

Ground track
Ground track

The orbit is defined by the following mean orbital elements,

1 51782U          26145.32226672 +.00000000 +00000-0 +30496-4 0 00000
2 51782  53.2135   5.2559 0001267 103.8717 256.2416 15.08837003    04
Epoch (UTC): 25 May 2026 07:44:03
Eccentricity: 0.0001267
inclination: 53.2135°
perigee height: 539 km
apogee height: 541 km
right ascension of ascending node: 5.2559°
argument of perigee: 103.8717°
revolutions per day: 15.08837003
mean anomaly at epoch: 256.2416°

The dashed part of the orbit path shows where the satellite is in the earth's shadow,  

DLR